Regional Weather Roundup
Issued by NWS

Home | Current Version | Previous Version | Graphics & Text | Print | Product List | Glossary On
Versions: 1 2 3 4 5 6 7 8 9 10 11 12 13 14 15 16 17 18 19 20 21 22 23 24 25 26 27 28 29 30 31 32 33 34 35 36 37 38 39 40 41 42 43 44 45 46 47 48 49 50
000
ASUS43 KDMX 160701
RWRIA

WEATHER ROUNDUP FOR IOWA
NATIONAL WEATHER SERVICE DES MOINES IA
100 AM CST TUE JAN 16 2018

NOTE: "FAIR" INDICATES FEW OR NO CLOUDS BELOW 12,000 FEET WITH NO
SIGNIFICANT WEATHER AND/OR OBSTRUCTIONS TO VISIBILITY.

* - THESE STATIONS ARE NOT NWS STATIONS...THUS NOT UNDER NWS
QUALITY CONTROL.  THEY ALSO DO NOT REPORT WEATHER SUCH
AS PRECIPITATION OR FOG.

IAZ001>003-012>014-020>022-031>034-043>046-160800-
   NORTHWEST IOWA

CITY           SKY/WX    TMP DP  RH WIND       PRES   REMARKS
CARROLL *      FLURRIES  -6 -11  77 NW18      30.62S WCI -29
CHEROKEE *     CLOUDY    -4 -10  75 N12G17    30.66S WCI -22
DENISON *      CLOUDY    -6 -11  77 NW12G20   30.66F WCI -24
LE MARS *      CLOUDY    -4 -11  71 NW18G24   30.69S WCI -26
ORANGE CITY *  CLOUDY    -4  -9  77 N9G18     30.65S WCI -20
SHELDON *      CLOUDY    -8 -15  71 N14       30.64S WCI -28
SIOUX CITY     CLOUDY    -3 -10  72 NW20      30.71S WCI -26
SPENCER        MOCLDY    -9 -16  71 NW13      30.63S WCI -29
STORM LAKE *   FLURRIES  -8 -13  77 NW20      30.60F WCI -32
$$

IAZ055>058-069>071-079>083-090>094-160800-
   SOUTHWEST IOWA

CITY           SKY/WX    TMP DP  RH WIND       PRES   REMARKS
ATLANTIC *     CLOUDY    -6 -11  77 NW14      30.65S WCI -26
AUDUBON *      CLEAR     -6 -13  71 NW14      30.62S WCI -26
CLARINDA *     MOCLDY    -4  -9  77 N12       30.70F WCI -22
COUNCIL BLFS * PTCLDY    -4  -8  84 NW15G22   30.67S WCI -25
CRESTON *      CLEAR     -6 -13  71 NW14      30.61S WCI -26
HARLAN  *      PTCLDY    -6 -11  77 NW16      30.68F WCI -28
LAMONI         CLEAR     -5 -12  72 NW15      30.60F WCI -26
RED OAK *      MOCLDY    -4 -11  71 NW10G16   30.68F WCI -21
SHENANDOAH *   PTCLDY    -4  -9  77 NW8       30.71S WCI -19
$$

IAZ047>049-059>061-072>074-084-160800-
   CENTRAL IOWA

CITY           SKY/WX    TMP DP  RH WIND       PRES   REMARKS
AMES           PTCLDY    -7 -13  75 NW15      30.60F WCI -28
ANKENY *       MOCLDY    -6 -13  71 NW15      30.62S WCI -27
BOONE *        CLOUDY    -8 -15  71 NW15G22   30.58F WCI -29
CHARITON *     CLEAR     -6 -11  77 NW15      30.59S WCI -27
DES MOINES     FLURRIES  -5 -13  68 NW16      30.61S WCI -27
GRINNELL*      CLEAR     -7 -13  77 NW16      30.56S WCI -29
KNOXVILLE *    CLOUDY    -6 -17  59 NW14      30.58F WCI -26
MARSHALLTOWN   CLOUDY    -8 -13  78 NW18      30.55S WCI -32
NEWTON *       CLOUDY    -8 -13  77 NW13      30.58S WCI -28
PELLA *        CLEAR     -6 -14  69 NW15      30.60F WCI -27
PERRY *          N/A     -6 -13  71 NW12G17   30.63S WCI -25
$$

IAZ004>006-015-016-023>025-035-036-160800-
   NORTH CENTRAL IOWA

CITY           SKY/WX    TMP DP  RH WIND       PRES   REMARKS
ALGONA *       CLOUDY    -8 N/A N/A N18       30.58S WCI -31
CLARION *      CLOUDY    -8 -13  77 NW18      30.57F WCI -31
ESTHERVILLE    MOCLDY   -10 -15  78 NW18      30.59F WCI -34
FORT DODGE *   CLOUDY    -8 -14  74 NW9G16    30.60S WCI -25
MASON CITY     CLOUDY    -6 -12  75 NW18      30.54S WCI -29
FOREST CITY *  LGT SNOW  -4  -9  77 NW16G24   30.55S WCI -25
WEBSTER CITY * CLOUDY    -8 -15  71 NW18      30.57S WCI -31
IOWA FALLS *     N/A     -7 -13  75 NW17      30.56R WCI -30
$$

IAZ007>011-017>019-026>030-037>042-050>054-066-160800-
   NORTHEAST IOWA

CITY           SKY/WX    TMP DP  RH WIND       PRES   REMARKS
CEDAR RAPIDS   CLOUDY    -4 -10  75 NW16      30.50S WCI -25
CHARLES CITY * LGT SNOW  -2  -8  78 NW13G22   30.51S WCI -21
CLINTON *      FLURRIES  -1  -5  82 W17       30.46R WCI -22
DECORAH *      FLURRIES   3   0  85 NW14      30.44S WCI -15
DUBUQUE        LGT SNOW   4  -2  76 NW10      30.40S WCI -11
MONTICELLO *   FLURRIES  -2  -8  78 NW13G18   30.46S WCI -21
OELWEIN *      FLURRIES  -4  -6  92 NW16G22   30.48R WCI -25
WATERLOO         N/A     -6 -12  75 NW12      30.53S WCI -25
$$

IAZ064-065-067-068-078-160800-
   EAST CENTRAL IOWA

CITY           SKY/WX    TMP DP  RH WIND       PRES   REMARKS
DAVENPORT        N/A    N/A N/A N/A W14       30.49S
IOWA CITY      CLOUDY    -1 -10  65 W13       30.55R WCI -19
MT. PLEASANT * MOCLDY    -4  -9  77 NW12G21   30.55F WCI -22
MUSCATINE *    FLURRIES   0  -8  71 W15       30.56S WCI -20
QUAD CITIES      N/A      0  -7  72 W17       30.49F WCI -21
$$

IAZ062-063-075>077-085>089-095>099-160800-
   SOUTHEAST IOWA

CITY           SKY/WX    TMP DP  RH WIND       PRES   REMARKS
BURLINGTON     MOCLDY    -3 -12  65 W10       30.54S WCI -20
FAIRFIELD *    CLOUDY    -4 -15  59 W15       30.57S WCI -25
FORT MADISON * MOCLDY    -2  -9  71 W14G21    30.55F WCI -21
KEOKUK *       MOCLDY    -2  -9  71 W10       30.57S WCI -19
OSKALOOSA *      N/A     -6 -12  74 NW17      30.59R WCI -28
OTTUMWA        CLEAR     -5 -13  68 NW13      30.57S WCI -24
WASHINGTON *   FLURRIES  -4  -9  77 W16       30.57R WCI -25
$$

ABBREVIATIONS USED IN REMARKS
   TC - TEMPERATURES IN CELSIUS
  WCI - WIND CHILL INDEX
   HX - HEAT INDEX
  VSB - VISIBILITY
$$




USA.gov is the U.S. government's official web portal to all federal, state and local government web resources and services.